GSAT0101 (GALILEO-PFM)

Last updated on Wed Jul 02 2025 00:02:33 GMT+0000 (Coordinated Universal Time)

1 37846U 11060A 25182.07053168 -.00000098 00000+0 00000+0 0 9990 2 37846 57.0926 351.2807 0002816 54.4070 305.6195 1.70475897 85136
UTC large
Height (km)
Speed (km/s)
/
Latitude / Longitude
Inclination (degrees)
Orbital Period (minutes)
Azimuth
Elevation
Range (km)
Doppler Factor

Next 0 passes for location: London (51.5072 / 0.1276)

Sorry there are no passes over London.